Temperature
21 21 20 20 20 20 20 20 20 19 19 19 19 19 18 18 18 18 18 18 18 18 18 18 18 18 18 18 18 18 18 18 18 18 17 17 17 17 17 16 16 16 16
21 20 20 20 20 20 20 19 19 19 19 19 19 18 18 18 18 18 18 18 18 18 18 18 18 18 18 18 18 18 18 18 17 17 17 17 17 17 16 16 16 16 16
20 20 20 20 19 19 19 19 19 19 19 19 18 18 18 18 18 18 18 18 18 17 17 17 17 17 17 18 17 17 17 17 17 17 17 17 17 16 16 16 15 15 15
21 20 19 19 19 19 19 19 19 19 19 18 18 18 18 18 18 18 17 17 17 17 17 17 17 17 17 17 17 17 17 17 17 17 17 16 16 16 16 16 15 15 15
20 20 19 19 19 19 18 19 18 18 18 18 18 18 18 18 17 18 18 17 17 17 17 17 17 17 17 17 17 17 17 17 16 16 16 16 16 16 16 16 15 15 15
20 19 19 19 18 18 18 18 18 18 18 18 18 17 17 17 17 18 18 17 17 17 17 17 17 17 17 17 17 17 17 16 16 16 16 16 16 16 16 15 15 15 14
19 19 18 18 18 18 18 18 18 17 17 17 17 17 17 17 17 17 17 17 17 17 17 17 17 17 17 17 17 16 17 17 16 16 16 16 16 16 16 15 15 15 15
19 18 18 18 18 18 17 17 17 17 17 17 17 17 17 17 17 17 17 17 17 17 17 17 17 17 17 17 16 16 16 16 16 16 16 16 16 16 15 15 15 15 14
18 18 18 18 17 17 17 17 17 17 17 17 17 17 17 17 17 17 17 17 16 16 16 16 16 16 16 16 16 16 16 16 16 16 16 16 16 15 15 15 15 14 14
18 17 17 17 17 17 17 17 17 17 17 17 17 17 17 17 17 17 17 17 16 16 16 16 16 16 16 16 16 15 15 16 15 15 15 15 15 15 15 15 15 14 14
17 17 17 17 17 17 17 17 16 16 16 17 17 17 17 17 17 17 17 16 16 16 16 16 16 16 16 15 15 15 15 15 15 15 15 15 14 14 14 14 14 14 14
16 16 16 16 16 16 16 16 16 16 16 16 16 16 16 16 16 17 17 16 16 16 15 15 15 15 15 15 15 15 15 14 14 14 14 14 14 14 14 14 14 14 14
16 16 16 16 16 16 16 16 16 16 16 16 16 16 16 16 16 16 16 16 15 15 15 15 15 14 14 14 14 14 14 14 14 14 14 13 14 14 14 13 13 13 13
16 16 16 16 16 16 16 15 15 16 16 16 16 16 16 16 16 16 15 15 15 14 14 14 14 14 14 14 14 14 14 14 14 13 13 13 13 13 13 13 13 13 13
15 15 15 15 15 15 15 15 15 16 16 16 16 16 16 15 15 15 15 15 14 14 14 14 13 13 13 13 13 13 13 13 13 13 13 13 13 13 13 13 13 12 12
15 15 15 15 15 15 15 15 15 15 15 15 15 15 15 15 15 15 14 14 14 14 13 13 13 13 13 13 13 13 13 13 13 13 13 13 13 13 12 12 12 12 12
15 15 15 15 15 15 15 15 15 15 15 15 15 15 15 14 14 14 14 14 13 13 13 13 12 12 12 12 12 12 12 12 12 12 12 12 12 12 12 12 12 12 12
14 14 14 14 15 15 15 14 14 14 14 14 14 14 14 14 14 13 13 13 12 12 12 12 12 12 12 12 12 12 12 12 11 11 11 12 12 12 12 12 11 11 11
14 14 14 14 14 14 14 14 14 14 14 14 14 13 13 13 13 13 12 12 12 12 12 12 12 12 11 11 11 11 11 11 11 11 11 11 11 11 11 11 11 11 11
13 14 14 13 13 13 14 13 13 13 13 13 13 13 13 13 12 12 12 12 11 11 11 11 11 11 11 11 11 11 11 10 11 10 10 11 11 11 11 11 11 11 11
13 13 13 13 13 13 13 13 13 13 13 12 12 12 12 12 12 12 11 11 11 11 11 11 11 11 11 10 10 10 10 10 10 10 10 10 10 10 10 10 10 10 10
12 12 12 12 12 12 12 12 12 12 12 12 12 12 12 11 11 11 11 11 11 11 11 10 10 10 10 10 10 10 10 10 10 10 10 10 10 10 10 10 10 10 10
12 12 12 12 12 12 12 12 12 12 12 12 11 11 11 11 11 11 10 10 10 10 10 10 10 10 10 10 9 9 9 9 9 9 9 9 9 9 9 9 9 9 9
12 12 12 12 12 12 12 12 12 11 11 11 11 11 11 10 10 10 10 10 10 10 10 9 9 9 9 9 9 9 9 9 9 9 9 9 9 9 9 9 9 9 9
11 11 11 12 11 11 11 11 11 11 11 11 10 10 10 10 10 10 10 10 10 10 9 9 9 9 9 9 9 9 9 9 9 8 8 8 8 8 8 8 8 8 8
11 11 11 11 11 11 11 11 11 11 10 10 10 10 10 10 10 10 10 10 9 9 9 9 9 9 9 9 9 9 9 8 8 8 8 8 8 8 8 8 8 8 8
Wind_Speed
11 9 8 8 8 6 5 6 5 5 5 4 5 5 5 5 5 5 5 5 5 4 4 4 4 4 3 3 3 3 3 2 3 2 1 2 3 3 5 7 8 8 8
8 8 8 7 7 7 7 6 5 5 5 5 5 5 5 5 5 5 5 5 5 5 5 4 5 5 5 4 3 3 3 3 3 3 2 2 3 4 4 5 7 8 8
8 7 7 7 7 7 6 5 5 5 5 4 4 5 5 5 5 4 5 5 5 5 4 4 5 5 5 4 4 4 3 3 3 3 4 3 3 4 4 5 5 4 8
8 8 6 6 6 6 5 5 5 5 5 5 4 5 4 4 4 4 5 5 5 5 4 5 5 5 5 4 4 4 4 3 3 4 4 3 3 4 4 4 4 4 4
7 7 6 5 5 4 4 4 4 5 6 5 5 5 5 5 5 4 4 6 5 5 4 4 5 4 5 4 4 3 3 3 4 4 4 3 3 3 3 3 4 3 3
6 6 6 5 5 5 4 4 5 5 5 5 5 5 6 6 4 4 4 5 4 5 5 4 4 4 5 6 4 3 3 4 4 4 4 4 4 3 3 4 3 3 3
5 5 5 6 5 5 6 5 4 4 5 5 5 5 5 5 5 4 5 4 5 5 5 4 5 5 3 3 4 4 3 4 5 5 5 4 4 4 4 4 4 4 4
5 5 5 5 5 5 5 5 4 4 4 4 5 5 5 5 6 5 5 5 6 5 5 5 5 4 4 3 4 4 4 4 6 5 4 4 3 3 4 5 5 4 3
4 4 5 5 5 5 4 3 3 3 4 4 4 4 4 4 6 6 5 5 5 6 6 5 6 5 4 5 4 4 4 4 5 5 4 5 5 5 4 3 4 4 4
3 4 4 5 5 5 5 4 3 3 4 4 3 3 4 4 6 7 6 5 5 4 3 4 5 5 5 5 5 5 5 5 4 4 4 5 5 5 7 6 5 4 3
2 3 3 4 5 5 5 4 4 5 4 4 4 5 5 6 7 9 8 5 5 4 4 3 1 3 4 5 5 5 5 4 4 5 5 5 5 4 4 4 4 5 4
1 2 3 3 5 5 4 4 5 5 5 6 6 6 6 6 7 8 9 8 5 4 3 2 1 2 3 4 5 6 6 4 4 4 4 4 4 4 4 4 5 5 5
1 2 3 4 4 4 5 5 6 6 6 6 6 6 5 4 4 7 8 7 6 4 3 3 2 3 3 4 7 7 6 5 5 5 5 4 3 4 4 4 4 4 4
2 3 3 4 4 4 4 5 6 5 5 5 5 5 4 3 2 2 3 3 3 4 3 3 3 4 4 5 4 4 5 5 4 5 4 4 3 3 4 4 4 4 4
3 3 4 5 5 4 5 5 5 3 3 4 3 3 3 3 2 2 2 2 2 1 2 3 4 3 3 3 4 4 4 4 4 4 4 4 3 3 3 3 3 3 4
3 4 5 4 4 4 4 3 3 5 6 6 5 5 4 4 4 3 2 2 3 2 2 4 5 5 5 4 4 4 3 3 3 4 4 4 4 4 4 4 4 4 4
4 4 5 4 4 4 4 4 3 3 3 4 6 7 7 6 5 5 4 4 4 4 4 5 5 5 5 5 4 4 4 3 3 4 4 4 4 4 4 4 4 4 4
5 5 5 4 4 4 3 4 4 3 3 3 4 7 8 8 7 6 5 3 4 5 5 6 5 5 4 4 4 3 3 3 3 3 4 3 3 3 4 4 4 4 4
5 4 3 4 4 4 4 4 4 4 3 3 2 3 6 6 6 6 5 4 5 5 5 5 5 4 4 3 3 3 3 3 3 3 4 4 3 3 4 4 4 5 5
4 4 3 4 5 4 4 4 4 3 4 3 3 3 2 3 4 4 4 5 5 5 5 5 4 3 3 3 3 3 3 3 3 3 4 3 3 3 4 3 4 4 4
4 3 4 4 4 4 4 4 3 3 3 3 3 3 4 4 4 4 4 4 5 5 4 4 4 3 3 3 3 4 4 4 3 3 3 3 3 3 3 3 3 3 3
5 4 3 3 3 3 4 3 3 3 3 4 3 3 5 5 4 4 4 4 4 4 3 3 3 3 2 3 3 3 4 4 3 3 3 3 3 3 3 3 2 2 1
5 5 4 3 3 3 3 3 2 3 3 4 3 3 3 4 4 3 3 3 3 3 2 2 2 3 3 3 3 3 3 3 3 3 3 3 3 3 2 2 2 2 2
5 5 4 3 3 3 2 2 2 2 2 3 3 3 3 3 3 3 3 3 3 3 3 3 3 4 4 3 3 2 2 2 2 3 3 3 3 3 2 2 3 3 3
4 3 4 3 3 2 2 2 2 2 2 2 2 3 3 3 3 3 3 3 3 4 4 4 4 4 4 4 3 2 1 1 0 2 2 3 3 4 4 4 4 4 4
3 3 3 2 2 2 2 2 2 2 2 2 2 2 2 3 3 3 2 3 3 4 4 3 4 4 3 3 3 2 2 2 0 2 3 4 4 5 4 4 5 5 5
Wind_Direction
188 190 196 193 200 208 213 213 215 215 216 207 206 210 217 220 222 224 235 233 230 237 241 234 235 248 254 263 257 244 239 223 236 249 246 180 166 156 160 158 160 163 168
181 184 191 190 196 205 210 208 207 209 212 206 207 215 222 222 224 224 238 240 235 236 236 237 237 237 236 255 258 246 240 223 218 237 236 208 195 180 173 189 182 182 173
172 174 181 191 197 204 206 204 203 204 205 206 203 213 222 226 225 226 237 245 242 243 243 242 241 238 233 233 242 246 241 238 214 221 236 219 206 198 191 211 203 188 184
167 172 176 190 193 196 200 197 200 201 202 201 208 214 219 227 226 230 239 243 244 246 246 244 244 239 234 236 240 245 250 253 235 223 231 223 213 204 200 207 213 206 202
162 172 177 187 191 189 192 194 198 202 206 199 205 215 219 224 224 223 240 242 244 247 249 247 245 233 225 228 237 232 238 245 247 235 230 229 220 206 214 220 218 211 203
163 174 170 176 186 189 191 191 197 203 208 202 206 215 221 227 207 207 221 248 246 243 248 251 252 231 224 214 219 221 224 237 250 248 237 224 219 218 221 231 225 218 218
172 177 180 183 189 190 200 192 194 200 208 213 215 214 220 217 209 204 214 240 246 242 240 241 253 250 224 219 220 224 241 248 247 249 255 246 225 216 218 228 227 228 230
173 186 189 192 196 198 204 201 201 209 217 220 225 219 224 220 207 210 219 235 246 244 237 231 235 251 246 220 230 228 233 245 247 240 249 254 238 219 213 221 230 231 225
178 191 193 195 201 198 201 205 204 214 222 227 229 227 236 226 201 204 211 246 245 243 238 233 224 224 213 209 220 227 239 245 244 230 235 245 244 231 217 221 227 220 223
197 198 193 192 197 199 196 197 212 216 222 232 238 239 243 237 208 201 203 242 250 246 239 232 221 210 205 204 219 225 233 243 251 243 239 249 242 226 215 212 217 224 227
212 205 199 201 206 206 195 193 207 222 224 228 236 233 231 228 208 199 199 229 254 255 242 235 212 173 194 215 227 236 239 249 250 246 236 225 221 220 214 215 213 213 220
241 230 208 204 220 216 199 205 213 222 226 230 233 234 234 222 210 201 201 215 237 258 261 242 187 173 212 230 232 235 243 251 255 250 243 227 215 215 217 213 211 215 218
266 252 220 213 214 212 209 217 224 225 229 230 226 231 231 216 197 185 196 214 234 239 263 276 275 253 247 248 238 238 238 240 239 242 242 238 223 213 210 209 205 205 221
257 264 234 228 220 213 217 227 229 229 233 231 233 235 228 207 193 176 199 216 228 236 260 269 256 244 241 249 253 247 233 237 234 234 237 236 228 218 217 210 206 202 206
237 250 242 236 225 216 219 234 235 230 236 240 246 248 245 234 198 167 197 228 239 245 271 259 253 242 238 236 238 235 231 226 237 245 242 240 233 225 223 217 212 216 215
256 257 256 243 224 225 226 245 241 231 221 216 215 219 224 206 202 216 217 214 207 202 236 251 250 246 245 243 241 242 240 237 237 240 242 242 239 235 232 222 212 215 220
275 276 272 260 247 240 232 231 244 258 250 238 231 221 214 208 209 222 238 247 233 203 230 245 247 242 242 246 246 244 243 239 236 237 241 243 240 238 237 235 222 214 221
283 271 263 262 262 258 255 254 243 235 232 242 241 220 212 214 217 223 229 246 250 225 233 238 241 238 238 240 246 251 249 238 234 242 245 243 240 238 235 231 227 222 224
286 281 275 288 287 275 263 259 258 254 248 242 232 229 219 216 216 218 213 232 248 251 246 242 243 241 239 234 236 241 242 238 231 232 241 239 237 237 239 234 226 215 221
273 266 267 276 279 280 272 261 259 259 253 247 244 241 215 224 228 222 224 237 243 252 254 251 248 243 233 230 228 232 240 243 230 233 244 239 239 240 244 243 239 230 227
292 273 247 263 275 286 283 276 270 266 262 252 247 229 218 228 235 233 236 236 241 245 252 254 247 238 233 223 226 235 241 247 243 238 245 250 251 254 254 248 250 246 237
291 294 289 282 279 279 282 275 270 269 267 265 259 233 216 237 250 243 243 244 245 244 243 250 262 260 255 246 239 241 243 246 248 242 246 249 249 252 253 249 241 235 234
289 290 285 274 271 258 262 278 277 268 267 262 259 258 245 251 252 247 249 250 247 251 245 242 260 262 250 240 234 235 243 250 252 248 253 256 257 261 269 275 271 256 233
294 295 292 283 274 273 275 281 288 288 286 286 281 267 258 250 251 251 251 249 246 248 247 244 249 255 256 250 236 231 242 257 265 260 260 255 251 258 261 261 260 257 246
303 302 295 289 288 288 289 290 291 290 295 301 297 288 279 265 256 244 232 232 245 246 246 243 239 238 237 240 246 246 206 157 300 296 268 246 244 245 245 250 253 255 251
299 300 307 315 315 314 308 299 288 277 276 284 280 272 275 272 266 259 247 240 243 245 245 242 237 233 227 221 213 154 130 126 180 278 263 238 236 239 239 240 246 246 248
Height
1493 1495 1498 1500 1502 1505 1507 1508 1509 1510 1512 1513 1514 1516 1517 1518 1519 1519 1520 1521 1521 1521 1522 1522 1522 1523 1523 1524 1525 1525 1526 1526 1526 1526 1526 1526 1526 1526 1526 1526 1526 1526 1526
1489 1492 1494 1497 1499 1500 1502 1503 1505 1506 1507 1508 1510 1512 1513 1514 1515 1516 1516 1517 1517 1518 1518 1518 1519 1519 1520 1520 1521 1522 1522 1523 1523 1523 1523 1524 1524 1524 1523 1523 1523 1523 1523
1486 1488 1491 1493 1495 1496 1497 1499 1500 1502 1503 1504 1506 1508 1509 1511 1512 1512 1513 1514 1514 1514 1515 1515 1515 1515 1516 1516 1517 1518 1519 1519 1520 1520 1520 1520 1520 1521 1520 1521 1521 1520 1520
1482 1485 1487 1489 1491 1492 1494 1495 1497 1498 1499 1501 1503 1504 1506 1507 1508 1509 1510 1510 1511 1511 1511 1511 1511 1512 1512 1512 1513 1514 1515 1516 1516 1516 1516 1516 1517 1517 1517 1517 1517 1518 1517
1479 1482 1484 1486 1488 1489 1491 1492 1494 1495 1496 1497 1499 1501 1502 1504 1504 1505 1506 1507 1507 1507 1507 1507 1507 1508 1508 1509 1509 1509 1510 1511 1512 1512 1512 1513 1513 1513 1513 1513 1514 1514 1514
1476 1479 1481 1483 1485 1486 1487 1489 1490 1492 1493 1494 1496 1497 1498 1500 1500 1501 1502 1502 1502 1503 1503 1503 1504 1504 1504 1505 1505 1506 1506 1507 1507 1508 1508 1508 1507 1508 1509 1510 1510 1510 1510
1474 1476 1478 1480 1482 1483 1485 1486 1487 1488 1490 1491 1492 1493 1494 1495 1496 1497 1497 1498 1498 1498 1498 1499 1499 1500 1500 1500 1501 1501 1502 1502 1503 1504 1504 1503 1503 1504 1505 1505 1505 1506 1506
1471 1473 1475 1478 1479 1481 1482 1483 1484 1485 1487 1488 1489 1490 1491 1491 1492 1493 1493 1493 1494 1494 1494 1494 1494 1495 1496 1496 1496 1496 1497 1497 1498 1498 1499 1499 1499 1500 1500 1500 1501 1502 1502
1468 1470 1472 1474 1476 1477 1478 1479 1480 1481 1483 1483 1485 1486 1487 1488 1488 1488 1489 1489 1489 1489 1489 1490 1490 1490 1491 1491 1492 1491 1491 1492 1493 1493 1494 1494 1494 1495 1495 1496 1496 1497 1497
1466 1467 1469 1471 1472 1473 1474 1475 1476 1477 1478 1480 1481 1482 1484 1484 1484 1485 1485 1485 1485 1485 1485 1485 1486 1486 1486 1486 1487 1486 1486 1486 1488 1488 1488 1488 1489 1489 1490 1490 1491 1492 1492
1463 1465 1466 1467 1468 1470 1470 1472 1473 1474 1475 1475 1476 1478 1479 1480 1480 1480 1481 1481 1481 1481 1481 1481 1481 1481 1481 1481 1482 1482 1482 1482 1483 1483 1482 1482 1483 1484 1484 1485 1486 1487 1487
1460 1461 1462 1462 1465 1467 1468 1469 1470 1471 1472 1472 1473 1474 1475 1475 1476 1476 1477 1477 1477 1477 1477 1477 1477 1477 1477 1477 1476 1477 1477 1478 1478 1478 1478 1478 1478 1478 1479 1480 1481 1482 1483
1458 1457 1458 1460 1461 1463 1464 1465 1466 1467 1468 1469 1470 1471 1471 1472 1472 1473 1473 1473 1473 1473 1473 1473 1473 1473 1472 1472 1472 1472 1472 1472 1472 1473 1473 1473 1474 1474 1475 1476 1476 1477 1477
1454 1455 1456 1457 1458 1459 1460 1462 1463 1463 1464 1465 1466 1467 1467 1468 1468 1468 1468 1469 1469 1469 1469 1468 1468 1468 1468 1467 1467 1467 1467 1467 1467 1467 1468 1469 1470 1470 1471 1471 1471 1472 1472
1452 1453 1453 1454 1454 1456 1457 1458 1459 1459 1460 1461 1461 1462 1462 1462 1463 1463 1464 1464 1464 1464 1464 1463 1463 1462 1462 1462 1462 1462 1462 1463 1462 1463 1463 1464 1464 1465 1465 1466 1467 1467 1468
1450 1450 1451 1451 1451 1452 1453 1454 1454 1455 1456 1456 1456 1457 1457 1457 1458 1459 1459 1459 1459 1459 1459 1458 1457 1457 1457 1458 1458 1458 1458 1458 1458 1458 1458 1459 1460 1460 1460 1461 1462 1462 1463
1446 1446 1447 1447 1448 1448 1449 1449 1449 1450 1451 1451 1451 1452 1452 1452 1453 1453 1454 1454 1454 1454 1453 1452 1452 1453 1453 1453 1453 1453 1453 1453 1454 1454 1454 1454 1455 1455 1456 1456 1457 1457 1458
1443 1444 1444 1444 1444 1445 1445 1445 1445 1445 1445 1446 1446 1447 1447 1448 1448 1448 1448 1448 1448 1448 1447 1447 1447 1448 1448 1448 1448 1448 1449 1449 1449 1449 1450 1450 1450 1451 1451 1452 1452 1453 1454
1440 1440 1440 1440 1441 1441 1441 1441 1441 1441 1441 1441 1442 1442 1443 1443 1443 1443 1443 1443 1442 1442 1442 1442 1442 1443 1443 1443 1444 1444 1444 1445 1445 1445 1445 1446 1446 1446 1447 1447 1448 1449 1450
1436 1437 1436 1436 1437 1437 1436 1436 1436 1436 1437 1437 1437 1437 1437 1438 1437 1437 1438 1437 1437 1437 1437 1437 1437 1438 1438 1438 1439 1439 1440 1440 1440 1441 1441 1442 1442 1443 1443 1444 1444 1445 1446
1433 1433 1433 1432 1432 1432 1432 1432 1432 1432 1432 1432 1432 1432 1433 1433 1433 1433 1433 1433 1433 1432 1433 1433 1432 1432 1433 1433 1434 1435 1435 1436 1436 1437 1437 1438 1438 1439 1439 1440 1440 1441 1442
1430 1429 1430 1429 1429 1429 1428 1428 1428 1428 1428 1428 1428 1429 1429 1429 1429 1429 1428 1428 1428 1428 1428 1428 1428 1428 1428 1429 1430 1430 1431 1431 1432 1432 1433 1434 1435 1435 1436 1436 1437 1437 1438
1428 1427 1426 1426 1426 1425 1425 1424 1424 1424 1424 1424 1424 1424 1424 1424 1424 1424 1423 1423 1424 1424 1424 1424 1424 1424 1425 1425 1426 1426 1426 1426 1427 1428 1429 1429 1430 1431 1432 1432 1433 1434 1434
1426 1424 1423 1422 1422 1422 1422 1421 1421 1421 1420 1420 1420 1420 1419 1419 1419 1419 1419 1418 1419 1420 1420 1420 1420 1421 1421 1421 1421 1422 1422 1422 1423 1424 1425 1425 1426 1427 1428 1428 1429 1430 1431
1423 1421 1420 1419 1419 1418 1418 1417 1418 1417 1417 1416 1416 1415 1415 1415 1415 1415 1415 1415 1415 1415 1416 1416 1416 1416 1416 1416 1417 1417 1418 1418 1418 1419 1420 1420 1421 1422 1423 1424 1425 1426 1428
1421 1419 1418 1417 1417 1417 1416 1415 1415 1414 1414 1413 1412 1412 1412 1411 1411 1411 1411 1411 1411 1411 1411 1411 1411 1412 1412 1412 1413 1413 1413 1413 1414 1415 1415 1416 1416 1417 1418 1420 1421 1422 1424